Christmas Island Airport


Codes: YPXM/XCH
Name: Christmas Island Airport
City: Christmas Island
Country: Christmas Island
Elevation: 916 ft.
Website:
Wikipedia:

Photos at Christmas Island Airport


   Photos courtesy of SpottingLog. You can add your own sightings and photos by signing up for a free trial today.



No photos found.

Weather at Christmas Island Airport


Time (UTC)DescriptionTempratureWindCloud coverageVisibilityPressureHumidity
15-Apr-2024 15:00Light Rain27°C20 mph, E100%10000m1014hPa89%
15-Apr-2024 18:00Light Rain27°C18 mph, E97%10000m1013hPa83%
15-Apr-2024 21:00Overcast Clouds27°C18 mph, SE99%10000m1011hPa78%
16-Apr-2024 00:00Light Rain27°C18 mph, SE99%10000m1011hPa74%
16-Apr-2024 03:00Light Rain28°C13 mph, SE94%10000m1012hPa73%
16-Apr-2024 06:00Light Rain27°C18 mph, E48%10000m1009hPa76%
16-Apr-2024 09:00Scattered Clouds27°C16 mph, E36%10000m1009hPa77%
16-Apr-2024 12:00Broken Clouds27°C16 mph, SE63%10000m1010hPa77%
16-Apr-2024 15:00Overcast Clouds27°C13 mph, SE93%10000m1012hPa77%
16-Apr-2024 18:00Broken Clouds27°C16 mph, SE83%10000m1010hPa80%
16-Apr-2024 21:00Scattered Clouds27°C18 mph, E36%10000m1009hPa80%
17-Apr-2024 00:00Light Rain27°C20 mph, E29%10000m1010hPa80%
17-Apr-2024 03:00Light Rain27°C18 mph, E11%10000m1011hPa79%
17-Apr-2024 06:00Light Rain27°C18 mph, E7%10000m1009hPa80%
17-Apr-2024 09:00Clear Sky27°C18 mph, E10%10000m1008hPa81%
17-Apr-2024 12:00Light Rain27°C18 mph, SE17%10000m1010hPa80%
17-Apr-2024 15:00Light Rain27°C20 mph, SE67%10000m1012hPa79%
17-Apr-2024 18:00Broken Clouds27°C20 mph, E83%10000m1010hPa80%
17-Apr-2024 21:00Overcast Clouds27°C20 mph, SE100%10000m1009hPa76%
18-Apr-2024 00:00Overcast Clouds27°C20 mph, SE100%10000m1011hPa78%
18-Apr-2024 03:00Overcast Clouds27°C20 mph, SE100%10000m1011hPa79%
18-Apr-2024 06:00Light Rain27°C20 mph, SE100%10000m1009hPa77%
18-Apr-2024 09:00Light Rain27°C20 mph, SE99%10000m1008hPa78%
18-Apr-2024 12:00Light Rain27°C18 mph, SE89%10000m1010hPa79%
18-Apr-2024 15:00Light Rain27°C20 mph, SE100%10000m1011hPa80%
18-Apr-2024 18:00Overcast Clouds27°C20 mph, SE100%10000m1010hPa76%
18-Apr-2024 21:00Light Rain27°C20 mph, SE99%10000m1009hPa73%
19-Apr-2024 00:00Overcast Clouds27°C20 mph, SE100%10000m1010hPa73%
19-Apr-2024 03:00Scattered Clouds27°C20 mph, SE50%10000m1011hPa71%
19-Apr-2024 06:00Broken Clouds27°C18 mph, SE66%10000m1009hPa71%
19-Apr-2024 09:00Overcast Clouds27°C18 mph, SE100%10000m1008hPa74%
19-Apr-2024 12:00Overcast Clouds27°C20 mph, SE100%10000m1009hPa75%
19-Apr-2024 15:00Overcast Clouds27°C20 mph, SE97%10000m1010hPa76%
19-Apr-2024 18:00Light Rain27°C22 mph, SE86%10000m1009hPa75%
19-Apr-2024 21:00Light Rain27°C22 mph, SE97%10000m1008hPa76%
20-Apr-2024 00:00Light Rain27°C20 mph, SE99%10000m1009hPa75%
20-Apr-2024 03:00Light Rain27°C18 mph, SE94%10000m1010hPa76%
20-Apr-2024 06:00Moderate Rain26°C18 mph, E88%9647m1008hPa81%
20-Apr-2024 09:00Light Rain26°C16 mph, SE97%10000m1007hPa81%
20-Apr-2024 12:00Light Rain26°C18 mph, SE93%10000m1008hPa81%